Location: Riverside Cemetery
(38.3047°N, 99.7773°W)
Time: 11:05:02
(UTC+00:00)

ADEOS Rocket - Pass Details

Date: 19 September 2020
Orbit: 858 x 1307 km, 98.7° (Epoch: 25 October)

Event Time Altitude Azimuth Distance (km) Brightness Sun altitude
Rises 10:11:35 0° 143° (SE) 4,090 6.4 -26.1°
Reaches altitude 10° 10:14:28 10° 136° (SE) 3,069 5.8 -25.6°
Maximum altitude 10:20:52 41° 70° (ENE) 1,531 4.5 -24.4°
Drops below altitude 10° 10:26:41 10° 2° (N) 2,793 5.7 -23.4°
Sets 10:29:11 0° 356° (N) 3,686 6.2 -22.9°
